Weather History for Elmendorf AFB, AK

Change the Weather History Date:

Wednesday, October 17, 2012

  Actual Average Record
Temperature  
Mean Temperature 28 °F -  
Max Temperature 37 °F 37 °F 50 °F (2005)
Min Temperature 21 °F 26 °F -10 °F (1969)
Degree Days  
Heating Degree Days 36    
Moisture  
Dew Point 21 °F    
Average Humidity 71    
Maximum Humidity 89    
Minimum Humidity 55    
Precipitation  
Precipitation 0.00 in - - ()
Sea Level Pressure  
Sea Level Pressure 29.68 in    
Wind  
Wind Speed 4 mph (NNE)    
Max Wind Speed 8 mph    
Max Gust Speed -    
Visibility 10 miles    
Events      
Averages and records for this station are not official NWS values.
T = Trace of Precipitation, MM = Missing Value Source: NWS Daily Summary

Daily Weather History Graph

Daily Weather History Graph

Search for Another Location

Airport:

Trip Planner

Search our weather history database for the weather conditions in past years. The results will help you decide how hot, cold, wet, or windy it might be!

Date:

Astronomy

Oct. 17, 2012 Rise Set
Actual Time 8:48 AM AKDT 6:38 PM AKDT
Civil Twilight 8:04 AM AKDT 7:23 PM AKDT
Nautical Twilight 7:14 AM AKDT 8:13 PM AKDT
Astronomical Twilight 6:23 AM AKDT 9:03 PM AKDT
Moon 12:35 PM AKDT (10/17) 7:21 PM AKDT (10/17)
Length of Visible Light 11h 18m
Length of Day
9h 50m
Waxing Crescent, 8% of the Moon is Illuminated
Oct 17
Waxing Crescent
Oct 21
First Quarter
Oct 29
Full
Nov 6
Last Quarter
Nov 13
New

Hourly Weather History & Observations

Time (AKDT) Temp. Windchill Dew Point Humidity Pressure Visibility Wind Dir Wind Speed Gust Speed Precip Events Conditions
12:06 AM 30.2 °F 25.4 °F 21.2 °F 69% 29.55 in 10.0 mi North 4.6 mph - N/A   Mostly Cloudy
12:55 AM 29.5 °F 24.5 °F 19.2 °F 66% 29.57 in 10.0 mi NNE 4.6 mph - N/A   Scattered Clouds
1:55 AM 28.9 °F 22.8 °F 18.1 °F 64% 29.60 in 10.0 mi NNE 5.8 mph - N/A   Clear
2:55 AM 27.9 °F 21.5 °F 18.9 °F 69% 29.62 in 10.0 mi NNE 5.8 mph - N/A   Clear
3:55 AM 27.7 °F 21.3 °F 17.4 °F 65% 29.63 in 10.0 mi North 5.8 mph - N/A   Clear
4:55 AM 25.2 °F - 19.2 °F 78% 29.67 in 10.0 mi Calm Calm - N/A   Clear
5:55 AM 27.0 °F 19.5 °F 22.5 °F 83% 29.68 in 10.0 mi North 6.9 mph - N/A   Partly Cloudy
6:55 AM 26.4 °F 20.9 °F 22.5 °F 85% 29.69 in 10.0 mi NNE 4.6 mph - N/A   Partly Cloudy
7:55 AM 21.9 °F - 19.0 °F 89% 29.71 in 10.0 mi Calm Calm - N/A   Clear
8:08 AM 23.0 °F - 19.4 °F 86% 29.71 in 10.0 mi Calm Calm - N/A   Mostly Cloudy
8:28 AM 26.6 °F 20.0 °F 23.0 °F 86% 29.71 in 10.0 mi North 5.8 mph - N/A   Scattered Clouds
8:55 AM 26.4 °F 18.9 °F 23.2 °F 88% 29.72 in 10.0 mi Variable 6.9 mph - N/A   Scattered Clouds
9:55 AM 27.7 °F - 24.4 °F 88% 29.73 in 10.0 mi Calm Calm - N/A   Clear
10:55 AM 30.2 °F 24.3 °F 25.0 °F 81% 29.74 in 10.0 mi Variable 5.8 mph - N/A   Partly Cloudy
11:55 AM 31.1 °F 23.7 °F 24.6 °F 77% 29.73 in 10.0 mi North 8.1 mph - N/A   Clear
12:55 PM 32.9 °F 27.5 °F 25.3 °F 74% 29.73 in 10.0 mi North 5.8 mph - N/A   Clear
1:55 PM 34.0 °F 27.2 °F 25.5 °F 71% 29.72 in 10.0 mi NNE 8.1 mph - N/A   Partly Cloudy
2:55 PM 34.3 °F 29.2 °F 24.3 °F 67% 29.70 in 10.0 mi North 5.8 mph - N/A   Clear
3:55 PM 36.9 °F 34.3 °F 25.2 °F 63% 29.69 in 10.0 mi Variable 3.5 mph - N/A   Scattered Clouds
4:55 PM 36.1 °F 29.9 °F 21.9 °F 56% 29.68 in 10.0 mi NNE 8.1 mph - N/A   Clear
5:55 PM 35.4 °F 30.5 °F 21.9 °F 58% 29.68 in 10.0 mi NNE 5.8 mph - N/A   Clear
6:55 PM 32.0 °F - 21.7 °F 66% 29.68 in 10.0 mi Calm Calm - N/A   Clear
7:55 PM 31.5 °F 24.9 °F 18.9 °F 60% 29.68 in 10.0 mi North 6.9 mph - N/A   Clear
8:55 PM 31.5 °F - 17.4 °F 56% 29.68 in 10.0 mi Calm Calm - N/A   Clear
9:55 PM 30.9 °F 27.5 °F 16.3 °F 55% 29.68 in 10.0 mi NNE 3.5 mph - N/A   Mostly Cloudy
10:55 PM 29.3 °F - 15.4 °F 56% 29.69 in 10.0 mi Calm Calm - N/A   Clear
11:55 PM 28.2 °F 23.1 °F 13.8 °F 55% 29.69 in 10.0 mi NNE 4.6 mph - N/A   Clear